Погода в Жанауштогане

Погода в Жанауштогане : погода сейчас, прогноз погоды и архив. Всё, что Вы хотите узнать о погоде в Жанауштогане!

Хотите узнать прогноз погоды в Жанауштогане? Тогда Вам сюда: Погода в Жанауштогане

Поиск расширенной информации на нашем сайте:

Другие новости

Новости СМИ2

Главная страница сайта

Новости сайта

02.10.2013

Напоминаем, что на нашем новом сайте вы можете получить высокодетализированные прогнозы погоды по пунктам России, СНГ и мира (включающие важные для авиации метеовеличины, такие как направление и скорость ветра, видимость, явления погоды, количество и форма облачности, нижняя и верхняя граница облачности), а также ознакомиться с разнообразными материалами по авиационной метеорологии и подборкой полезных ссылок на эту тему.

Сайт Метеоцентр.Азия посвящён разработке технологий оптимизации авиаметеорологического обслуживания, включая проектирование и перспективное создание нескольких автоматизированных авиаметеорологических систем:
- система выпуска высокодетальных прогностических карт явлений погоды для нижнего воздушного пространства по России и ближнему зарубежью;
- система верификации прогнозов TAF (выпускаемых синоптиками официальных АМСГ РФ и ближнего зарубежья) и AUTOTAF (выпускаемых сайтом Метеоцентр.Азия) - выявление ошибок, онлайн-сопоставление с фактической погодой METAR, автоматическое внесение коррективов в прогнозы при резком отклонении фактической погоды от прогноза, подсчёт оправдываемости прогнозов по элементам и в целом;
- система обработки, анализа и отображения авиаметеорологической информации для применения провайдерами метеорологической информации.


Погода в Жанауштогане - сегодня

Время (UTC), дата Ветер
(°,м/с) 
Видим.   Явления Облачность Т
(°С)
Тd
(°С)
f(%) Тe
(°С)
Pmin
(гПа)
dP
(гПа)
Po
(мм)
O2
(г/м3)
Тmin Tmax R s Состояние
почвы
09 23.04.17 180 (Ю) 20000 м    8/0 средняя 
[Ac trans]
+12.3 +8.9 80 +12  1015.8  -1.4  763  293           
12 23.04.17 180 (Ю) 20000 м    9/0 средняя 
[Ac trans]
+12.9 +7.6 70 +14  1014.5  -1.3  762  292           
15 23.04.17 140 (ЮВ) 20000 м    9/4 600 м средняя 
[Sc|Ac und]
+13.4 +8.6 73 +13  1010.8  -3.7  759  290    +13.8       
18 23.04.17 140 (ЮВ) 20000 м    8/8 600 м 
[Sc]
+9.6 +5.5 76 +9  1008.2  -2.6  757  294    +13.8       
21 23.04.17 140 (ЮВ) 20000 м    8/8 600 м 
[Sc]
+8.8 +5.9 82 +8  1004.1  -4.1  754  293           
00 24.04.17 140 (ЮВ) 20000 м    6/6 600 м 
[Sc]
+8 +6.8 92 +9  1000.4  -0.1  751  293           
03 24.04.17 200 (Ю) 20000 м    8/6 600 м 
[Sc]
+10.6 +8.8 89 +10  1006.1  755  291           
06 24.04.17 250 (З) 20000 м  пыльный позёмок  10/0 средняя, верхняя 
[Ac trans|Ci sp]
+9.6 +6.8 83 +8  1002.2  -3.9  753  292  +7.8         
09 24.04.17 250 (З) 20000 м  пыльный позёмок  8/4 600 м средняя 
[Sc|Ac und]
+11.5 +5.8 68 +10  1004.1  1.9  754  291           
12 24.04.17 230 (ЮЗ) 10  20000 м  пыльный позёмок  10/8 600 м средняя 
[Sc|Ac und]
+10.2 +5 70 +8  1006  1.9  755  293           
15 24.04.17 250 (З) 20000 м    10/8 600 м средняя 
[Sc|Ac und]
+11 +6.1 72 +9  1009.2  3.2  758  293    +12.1       
18 24.04.17 270 (З) 20000 м    4/0 средняя 
[Ac trans]
+8 +3.6 74 +8  1012.3  3.1  760  297    +12.1       
21 24.04.17 270 (З) 20000 м    3/0 средняя 
[Ac trans]
+5 +1.7 79 +5  1015.1  2.8  762  301           
00 25.04.17 250 (З) 20000 м    3/0 средняя 
[Ac trans]
+5.6 +2.9 83 +5  1016.4  1.3  763  301           
03 25.04.17 230 (ЮЗ) 20000 м    8/0 средняя 
[Ac trans]
+5.8 +3.4 85 +7  1018.3  1.9  765  301           
06 25.04.17 230 (ЮЗ) 20000 м  пыльный позёмок  8/4 600 м кучево-дожд., средняя 
[Cb calv|Ac trans]
+8.7 +3.6 70 +7  1018.7  0.4  765  298  +4.8         
09 25.04.17 250 (З) 20000 м  пыльный позёмок  10/8 600 м средняя 
[Sc|Ac und]
+10.2 +3.7 64 +8  1019.5  0.8  766  297           
12 25.04.17 250 (З) 20000 м  пыльный позёмок  8/4 600 м кучево-дожд., средняя 
[Cb calv|Ac trans]
+11 +4.1 62 +9  1020  0.5  766  296           
15 25.04.17 270 (З) 20000 м  пыльный позёмок  8/8 600 м кучево-дожд. 
[Cb calv]
+10.8 +3 59 +9  1021.5  1.5  767  297    +12.2       
18 25.04.17 270 (З) 20000 м    6/6 600 м кучево-дожд. 
[Cb calv]
+7.3 +2.3 71 +7  1024.3  2.8  769  302    +12.2       
21 25.04.17 250 (З) 20000 м    3/0 средняя 
[Ac trans]
+4.2 +1.1 80 +4  1025.5  1.2  770  305           
00 26.04.17 250 (З) 20000 м    ясно 
+2.8 +0.7 86 +2  1027.6  2.2  772  308           
03 26.04.17 270 (З) 20000 м    ясно 
+1.6 -0 89 +2  1029.5  1.9  766  307           
06 26.04.17 270 (З) 20000 м    ясно 
+10.8 +3 59 +12  1031.5  1.9  775  300  +1.5         
09 26.04.17 290 (З) 20000 м    6/6 1000 м 
[Cu med, cong]
+14.1 +3.6 49 +15  1032.2  0.7  775  296           
Время (UTC), дата Ветер
(°,м/с) 
Видим.   Явления Облачность Т
(°С)
Тd
(°С)
f(%) Тe
(°С)
Pmin
(гПа)
dP
(гПа)
Po
(мм)
O2
(г/м3)
Тmin Tmax R s Состояние
почвы

Для получения пояснительной информации подведите курсор к названию столбца.

ПОГОДА в Жанауштогане - архив

Всё, что Вы хотите узнать о погоде в Жанауштогане - удобно и подробно!

Выберите нужную дату (начиная с 1 января 2015* года) и нажмите кнопку "Найти".
Будут отображены архивные сводки погоды по пункту Жанауштоган, начиная с указанной даты.


Отображать данные в формате CSV (для использования в таблицах Excel)


Внимание! Наш архив погоды предназначен исключительно для личного некоммерческого использования в познавательных целях. Если Вам необходимы официальные справки о состоянии погоды (для производственных, юридических, коммерческих и т.п. целей), обращайтесь в органы Росгидромета.

*Примечание: данная дата относится к архиву по метеостанциям СССР (Россия, СНГ, Балтия).
Архив по метеостанциям Зарубежной Европы и Азии (кроме Китая) хранится 10 дней, по другим регионам земного шара (Китай, Африка, Америка, Австралия, Океания) - 1 день.

Жанауштоган - район местоположения метеостанции


Название, широта, долгота, высота метеостанции:
Жанауштоган 47.9°ш. 48.8°д. -10 м над ур. моря [Казахстан]

Дополнительная информация

В oтличие oт бoльшинства пoгoдных сайтoв мы публикуем пoдрoбную метеoинфoрмацию в детальнoм прoфессиoнальнoм фoрмате.

Характеристики температуры и влажнoсти вoздуха измеряются на высoте 2 м в тени вдали oт зданий и деревьев.
Скoрoсть ветра измеряется на высoте 10 м (на урoвне рoста челoвека скoрoсть ветра ниже в 1.5-2 раза). Если метеoстанция нахoдится в гoрoде или в лесу, тo скoрoсть ветра занижена на 2-4 м/с пo сравнению с oткрытым местoм. Скoрoсть ветра над акватoриями крупных рек и oзёр, а также на вершинах хoлмoв на 2-5 м/с выше, чем в oбычных услoвиях.
Атмoсфернoе давление в разных тoчках местнoсти мoжет значительнo oтличаться oт давления на метеoстанции, в зависимoсти oт услoвий рельефа (при пoдъёме на 10 м давление пoнижается примернo на 1 мм рт.ст.).